Location: Berg
(48.5667°N, 13.9833°E)
Time: 04:15:16
(UTC+00:00)

Cosmos 2221 - Pass Details

Date: 09 April 2020
Orbit: 592 x 616 km, 82.5° (Epoch: 06 June)

Event Time Altitude Azimuth Distance (km) Brightness Sun altitude
Exits shadow 21:46:37 31° 2° (N) 1,077 4.2 -30.8°
Drops below altitude 10° 21:48:59 10° 7° (N) 1,981 5.8 -31.0°
Sets 21:51:13 0° 9° (N) 2,888 6.8 -31.1°
